W1JCN Weather Reports


Display with metric or nautical units.
time (UTC)temp
F
wind
direction
speed
MPH
gust
MPH
rain 1hr
in
rain 24hr
in
rain mn
in
humidity
%
barometer
mb
20260903071512 57 193 0.0 3.0 0.00 0.02 0.02 93 1014.4
20260903070612 57 193 1.0 5.0 0.00 0.02 0.02 93 1014.5
20260903065712 57 193 0.0 5.0 0.01 0.02 0.02 93 1014.3
20260903063912 58 192 0.0 3.0 0.02 0.02 0.02 93 1014.0
20260903063012 58 200 0.0 2.0 0.02 0.02 0.02 93 1014.3
20260903062112 58 200 0.0 3.0 0.02 0.02 0.02 92 1014.4
20260903061212 58 201 1.0 4.0 0.02 0.02 0.02 92 1014.6
20260903060312 58 205 0.0 4.0 0.01 0.01 0.01 92 1014.9
20260903054512 59 206 1.0 4.0 0.00 0.00 0.00 91 1015.3
20260903053612 59 195 1.0 6.0 0.00 0.00 0.00 91 1015.5
20260903052712 60 191 1.0 6.0 0.00 0.00 0.00 90 1015.5
20260903051812 60 189 1.0 7.0 0.00 0.00 0.00 90 1015.6
20260903050912 60 167 1.0 6.0 0.00 0.00 0.00 89 1015.8
20260903050012 60 167 1.0 7.0 0.00 0.00 0.00 89 1015.9
20260903045112 60 155 2.0 11.0 0.00 0.00 0.00 89 1015.6
20260903044212 60 164 2.0 6.0 0.00 0.00 0.00 89 1015.6
20260903043312 60 196 2.0 8.0 0.00 0.00 0.00 90 1015.7
20260903042412 60 181 2.0 11.0 0.00 0.00 0.00 90 1015.7
20260903041512 60 173 2.0 6.0 0.00 0.00 0.00 90 1015.9
20260903040612 60 170 1.0 7.0 0.00 0.00 0.00 90 1015.9
20260903035712 60 174 1.0 5.0 0.00 0.00 0.00 90 1016.0
20260903033912 60 197 1.0 9.0 0.00 0.00 0.00 90 1016.0
20260903033012 60 190 2.0 6.0 0.00 0.00 0.00 90 1016.1
20260903031211 60 190 1.0 6.0 0.00 0.00 0.00 91 1016.6
20260903030311 60 194 1.0 5.0 0.00 0.00 0.00 91 1016.5
20260903025411 60 197 1.0 5.0 0.00 0.00 0.00 91 1016.6
20260903024512 60 198 1.0 9.0 0.00 0.00 0.00 91 1016.9
20260903023611 60 204 2.0 6.0 0.00 0.00 0.00 91 1016.7
20260903022711 60 204 1.0 4.0 0.00 0.00 0.00 91 1016.8
20260903021811 60 191 1.0 4.0 0.00 0.00 0.00 91 1016.7
20260903020911 60 193 1.0 5.0 0.00 0.00 0.00 90 1016.9
20260903020011 60 192 1.0 6.0 0.00 0.00 0.00 90 1017.2
20260903015111 60 211 1.0 5.0 0.00 0.00 0.00 90 1017.2
20260903013311 60 179 0.0 4.0 0.00 0.00 0.00 89 1017.6
20260903012411 60 205 1.0 5.0 0.00 0.00 0.00 90 1017.5
20260903004811 61 210 0.0 5.0 0.00 0.00 0.00 88 1017.3
20260903003911 61 199 1.0 5.0 0.00 0.00 0.00 89 1017.3
20260903003011 61 196 1.0 6.0 0.00 0.00 0.00 87 1016.9
20260903002111 61 203 1.0 5.0 0.00 0.00 0.00 87 1016.9
20260903001211 61 199 2.0 8.0 0.00 0.00 0.00 88 1016.8
20260903000311 62 202 1.0 8.0 0.00 0.00 0.00 89 1016.9
20260902235411 62 203 1.0 5.0 0.00 0.00 0.00 89 1016.8
20260902234511 62 203 1.0 4.0 0.00 0.00 0.00 89 1016.8
20260902233611 62 204 0.0 5.0 0.00 0.00 0.00 89 1017.2
20260902232711 62 213 1.0 4.0 0.00 0.00 0.00 89 1017.3
20260902230911 63 177 0.0 6.0 0.00 0.00 0.00 89 1017.9
20260902230011 63 208 0.0 2.0 0.00 0.00 0.00 89 1018.1
20260902225111 63 209 0.0 2.0 0.00 0.00 0.00 89 1018.4
20260902224211 63 215 0.0 4.0 0.00 0.00 0.00 89 1018.6
20260902223311 63 224 1.0 5.0 0.00 0.00 0.00 89 1018.5
20260902222411 64 220 0.0 4.0 0.00 0.00 0.00 90 1018.6
20260902221511 64 209 0.0 4.0 0.00 0.00 0.00 90 1018.7
20260902220611 64 183 0.0 4.0 0.00 0.01 0.00 90 1018.8
20260902215711 64 0 0.0 0.0 0.00 0.01 0.00 90 1018.6
20260902214811 64 182 0.0 1.0 0.00 0.01 0.00 90 1018.6
20260902213911 64 182 0.0 2.0 0.00 0.01 0.00 90 1018.6
20260902213011 64 182 0.0 1.0 0.00 0.01 0.00 89 1018.6
20260902211211 64 182 0.0 3.0 0.00 0.01 0.00 88 1018.8
20260902210311 64 169 1.0 5.0 0.00 0.01 0.00 88 1018.7
20260902205411 65 152 1.0 4.0 0.00 0.01 0.00 89 1018.5
20260902204512 65 219 0.0 5.0 0.00 0.01 0.00 88 1018.6
20260902203611 65 199 1.0 5.0 0.00 0.01 0.00 87 1018.6
20260902202711 65 192 1.0 6.0 0.00 0.01 0.00 87 1018.8
20260902201811 65 212 0.0 3.0 0.00 0.02 0.00 87 1018.9
20260902200911 65 222 1.0 5.0 0.00 0.02 0.00 86 1019.0
20260902200011 66 217 1.0 5.0 0.00 0.02 0.00 86 1018.9
20260902195110 65 222 0.0 3.0 0.00 0.02 0.00 88 1018.9
20260902194210 65 231 0.0 6.0 0.00 0.02 0.00 88 1018.8
20260902193311 65 221 0.0 3.0 0.00 0.02 0.00 88 1019.2
20260902192411 65 206 1.0 7.0 0.00 0.02 0.00 86 1019.4
20260902191511 65 196 1.0 4.0 0.00 0.02 0.00 86 1019.4
20260902185710 65 197 1.0 5.0 0.00 0.02 0.00 88 1019.4
20260902184811 65 200 1.0 5.0 0.00 0.02 0.00 86 1019.7
20260902183911 65 204 1.0 5.0 0.00 0.03 0.00 87 1019.7
20260902183010 65 209 1.0 6.0 0.00 0.03 0.00 87 1019.8
20260902182111 65 202 1.0 7.0 0.00 0.03 0.00 88 1019.8
20260902181210 65 204 1.0 9.0 0.00 0.03 0.00 88 1019.7
20260902180311 64 176 1.0 6.0 0.00 0.04 0.00 89 1019.6
20260902175410 64 207 1.0 6.0 0.00 0.04 0.00 89 1019.8
20260902174510 63 223 1.0 5.0 0.00 0.04 0.00 90 1019.7
20260902172710 63 207 1.0 5.0 0.00 0.06 0.00 90 1019.8
20260902171810 63 215 0.0 3.0 0.00 0.07 0.00 90 1020.0
20260902170911 63 215 0.0 3.0 0.00 0.07 0.00 89 1020.0
20260902170010 63 219 1.0 5.0 0.00 0.07 0.00 89 1020.0
20260902165110 63 239 0.0 4.0 0.00 0.07 0.00 89 1019.9
20260902164210 64 203 1.0 4.0 0.00 0.07 0.00 88 1020.1
20260902163310 64 210 2.0 6.0 0.00 0.07 0.00 88 1020.0
20260902162410 64 196 1.0 4.0 0.00 0.07 0.00 88 1019.8
20260902161510 63 217 1.0 4.0 0.00 0.07 0.00 89 1019.8
20260902160610 63 222 0.0 3.0 0.00 0.07 0.00 88 1020.1
20260902155710 63 175 1.0 5.0 0.00 0.07 0.00 88 1020.2
20260902154810 64 223 1.0 6.0 0.00 0.08 0.00 88 1020.3
20260902153910 63 223 1.0 4.0 0.00 0.08 0.00 90 1020.3
20260902152110 63 190 1.0 4.0 0.00 0.08 0.00 91 1020.6
20260902145410 62 192 1.0 5.0 0.00 0.08 0.00 90 1020.8
20260902144510 62 202 1.0 4.0 0.00 0.08 0.00 92 1020.7
20260902143610 62 186 1.0 5.0 0.00 0.08 0.00 93 1020.5
20260902142710 61 175 1.0 7.0 0.00 0.08 0.00 94 1020.5
20260902141810 61 205 1.0 5.0 0.00 0.08 0.00 94 1020.4
20260902140910 61 204 0.0 3.0 0.00 0.08 0.00 94 1020.3
20260902135110 60 204 0.0 3.0 0.00 0.08 0.00 94 1020.3
20260902134210 60 205 0.0 4.0 0.00 0.08 0.00 94 1020.2
20260902133310 60 210 0.0 6.0 0.00 0.08 0.00 94 1020.2
20260902132410 60 212 0.0 3.0 0.00 0.08 0.00 94 1019.8
20260902131510 60 211 0.0 3.0 0.00 0.08 0.00 94 1019.6
20260902125710 60 211 1.0 6.0 0.00 0.08 0.00 95 1019.9
20260902124810 60 211 1.0 6.0 0.00 0.10 0.00 95 1019.8
20260902123910 60 206 1.0 3.0 0.00 0.10 0.00 95 1019.8
20260902123010 59 181 0.0 2.0 0.00 0.11 0.00 94 1019.9
20260902122110 59 179 0.0 3.0 0.00 0.12 0.00 95 1020.0
20260902121210 59 0 0.0 0.0 0.00 0.12 0.00 95 1019.9
20260902120310 59 178 0.0 1.0 0.00 0.14 0.00 94 1019.8
20260902115410 58 0 0.0 0.0 0.00 0.14 0.00 94 1019.9
20260902114510 58 0 0.0 0.0 0.00 0.18 0.00 95 1020.0
20260902113610 58 0 0.0 0.0 0.00 0.19 0.00 94 1019.8
20260902110909 58 0 0.0 0.0 0.00 0.21 0.00 94 1020.2
20260902110010 58 0 0.0 0.0 0.00 0.21 0.00 94 1020.3
20260902104210 58 0 0.0 0.0 0.00 0.22 0.00 94 1019.8
20260902103310 58 0 0.0 0.0 0.00 0.22 0.00 94 1019.9
20260902102410 58 0 0.0 0.0 0.00 0.22 0.00 94 1019.8
20260902100609 58 0 0.0 0.0 0.00 0.22 0.00 94 1019.4
20260902095710 58 0 0.0 0.0 0.00 0.22 0.00 94 1019.4
20260902093909 58 0 0.0 0.0 0.00 0.22 0.00 94 1019.3
20260902093009 58 0 0.0 0.0 0.00 0.22 0.00 94 1019.3
20260902092109 58 0 0.0 0.0 0.00 0.22 0.00 94 1019.3
20260902091209 58 0 0.0 0.0 0.00 0.22 0.00 94 1019.2
20260902085409 58 0 0.0 0.0 0.00 0.22 0.00 94 1019.0
20260902083609 58 0 0.0 0.0 0.00 0.22 0.00 94 1019.2
20260902081809 58 0 0.0 0.0 0.00 0.22 0.00 94 1019.1
20260902080009 58 0 0.0 0.0 0.00 0.22 0.00 94 1019.2
20260902075109 58 0 0.0 0.0 0.00 0.22 0.00 94 1019.1
20260902074210 58 0 0.0 0.0 0.00 0.22 0.00 94 1019.0
20260902073309 58 0 0.0 0.0 0.00 0.22 0.00 94 1019.0
20260902072409 58 0 0.0 0.0 0.00 0.22 0.00 94 1019.0